Regional Weather Roundup
Issued by NWS

Home | Current Version | Previous Version | Text Only | Print | Product List | Glossary Off
Versions: 1 2 3 4 5 6 7 8 9 10 11 12 13 14 15 16 17 18 19 20 21 22 23 24 25 26 27 28 29 30 31 32 33 34 35 36 37 38 39 40 41 42 43 44 45 46 47 48 49 50

552
ASUS44 KLIX 222205
RWRLA
LOUISIANA WEATHER ROUNDUP
NATIONAL WEATHER SERVICE NEW ORLEANS LA
500 PM CDT WED OCT 22 2014

NOTE: "FAIR" INDICATES FEW OR NO CLOUDS BELOW 12,000 FEET WITH NO
      SIGNIFICANT WEATHER AND/OR OBSTRUCTIONS TO VISIBILITY.
      SKY/WX - SKY CONDITION AND SIGNIFICANT WEATHER.
      TMP - AIR TEMPERATURE.    DP   - DEWPOINT TEMPERATURE.
      RH  - RELATIVE HUMIDITY.  PRES - PRESSURE.
      HX  - HEAT INDEX.         WCI  - WIND CHILL INDEX.

*  THESE STATIONS ARE NOT NWS OR FAA STATIONS AND ARE NOT UNDER
   NWS QUALITY CONTROL.

LAZ040-048-061>063-065-066-069-222300-
SOUTHEAST LOUISIANA

CITY           SKY/WX    TMP DP  RH WIND       PRES   REMARKS
N.O. AUDUBON     N/A     78  53  41 MISG        N/A
N.O. INTL ARPT SUNNY     79  51  37 NE6       30.02S
N.O. LAKEFRONT SUNNY     76  57  51 W5        30.03S
N.O. DOWNTOWN* FAIR      79  50  36 N5        30.03S
SLIDELL        SUNNY     79  51  37 N7        30.02S
BATON ROUGE    SUNNY     79  51  37 N9        30.03F
BOOTHVILLE     SUNNY     75  59  57 NE8       30.02S
BELLE CHASSE   SUNNY     78  54  43 VRB6      30.02R
BOGALUSA*      FAIR      79  47  32 N8        30.05S
NEW ROADS*     FAIR      77  53  42 N7        30.04S
GONZALES*      FAIR      79  52  39 N6        30.02S
HAMMOND*       SUNNY     81  45  28 N5        30.05R
HOUMA*         SUNNY     79  57  47 N12       30.02R
PORT FOURCHON* CLEAR     75  57  53 NE13G18   30.04S

$$

LAZ041-044-053-054-222300-
SOUTHWEST LOUISIANA

CITY           SKY/WX    TMP DP  RH WIND       PRES   REMARKS
LAKE CHARLES   SUNNY     80  57  45 NE9       30.03S
LAFAYETTE      SUNNY     79  55  43 NE6       30.02F
PATTERSON      SUNNY     81  55  41 NE9       30.04S
SALT POINT       N/A     80  57  45 N5        30.00F
NEW IBERIA     SUNNY     80  56  43 NE8       30.03F
CHENAULT AIRPK SUNNY     79  57  47 NE8       30.04S

$$

LAZ027-028-222300-
CENTRAL LOUISIANA

CITY           SKY/WX    TMP DP  RH WIND       PRES   REMARKS
FORT POLK      SUNNY     76  53  44 NE8       30.05F
ALEXANDRIA INT SUNNY     77  51  40 NE12      30.05F
ALEXANDRIA     SUNNY     77  51  40 NE6       30.07F

$$

LAZ001-002-222300-
NORTHWEST LOUISIANA

CITY           SKY/WX    TMP DP  RH WIND       PRES   REMARKS
SHREVEPORT     SUNNY     76  50  40 E9        30.08F
BARKSDALE AFB  SUNNY     77  49  37 E8        30.09S
DTN SHREVEPORT SUNNY     75  49  39 E7        30.09S

$$

LAZ014-016-222300-
NORTHEAST LOUISIANA

CITY           SKY/WX    TMP DP  RH WIND       PRES   REMARKS
MONROE         SUNNY     74  50  42 NE14      30.11F
TALLULAH       SUNNY     74  48  39 NE12      30.10S

$$




USA.gov is the U.S. government's official web portal to all federal, state and local government web resources and services.